This is the latest recevied weather packets stored in our database for station/object N9XRG. If no packets are shown the sender has not sent any weather packets the latest 10 day(s).
| Time | Temp. | Humidity | Pressure | Rain* | Wind** | Luminosity | Snow |
|---|---|---|---|---|---|---|---|
| 1777548759 | 5° C | 85% | 1016.1 hPa | 0 mm | - | 36 W/m² | - |
| 1777548457 | 4.44° C | 88% | 1016 hPa | 0 mm | - | 39 W/m² | - |
| 1777548153 | 3.89° C | 89% | 1015.9 hPa | 0 mm | - | 32 W/m² | - |
| 1777547849 | 3.89° C | 89% | 1016 hPa | 0 mm | - | 26 W/m² | - |
| 1777547546 | 3.89° C | 88% | 1015.9 hPa | 0 mm | - | 21 W/m² | - |
| 1777547243 | 3.89° C | 88% | 1016 hPa | 0 mm | - | 18 W/m² | - |
| 1777546940 | 3.89° C | 88% | 1015.7 hPa | 0 mm | - | 15 W/m² | - |
| 1777546637 | 3.89° C | 88% | 1016 hPa | 0 mm | - | 12 W/m² | - |
| 1777546333 | 3.89° C | 88% | 1015.9 hPa | 0 mm | - | 9 W/m² | - |
| 1777546031 | 3.89° C | 88% | 1015.9 hPa | 0 mm | - | 6 W/m² | - |
| 1777545727 | 4.44° C | 88% | 1015.7 hPa | 0 mm | - | 4 W/m² | - |
| 1777545424 | 4.44° C | 87% | 1016.1 hPa | 0 mm | - | 2 W/m² | - |
| 1777545121 | 4.44° C | 88% | 1015.9 hPa | 0 mm | - | 1 W/m² | - |
| 1777544818 | 4.44° C | 88% | 1015.8 hPa | 0 mm | - | 0 W/m² | - |
| 1777544514 | 4.44° C | 88% | 1015.9 hPa | 0 mm | - | 0 W/m² | - |
| 1777544210 | 5° C | 88% | 1015.6 hPa | 0 mm | - | 0 W/m² | - |
| 1777543908 | 5° C | 88% | 1015.7 hPa | 0 mm | - | 0 W/m² | - |
| 1777543604 | 5° C | 87% | 1015.7 hPa | 0 mm | - | 0 W/m² | - |
| 1777543300 | 5° C | 87% | 1016.1 hPa | 0 mm | - | 0 W/m² | - |
| 1777542996 | 5° C | 87% | 1015.6 hPa | 0 mm | - | 0 W/m² | - |
| 1777542692 | 5° C | 87% | 1015.5 hPa | 0 mm | - | 0 W/m² | - |
| 1777542389 | 5.56° C | 87% | 1015.5 hPa | 0 mm | - | 0 W/m² | - |
| 1777542086 | 5.56° C | 87% | 1015.5 hPa | 0 mm | - | 0 W/m² | - |
| 1777541783 | 5.56° C | 87% | 1015.5 hPa | 0 mm | - | 0 W/m² | - |
| 1777541480 | 5.56° C | 87% | 1015.3 hPa | 0 mm | - | 0 W/m² | - |
* Rain latest hour (hover to see other rain measurements)
** Current wind speed in m/s (hover to see current wind gust speed)